KANOPUS-V 5

导读

KANOPUS-V 5是独联体(CIS)发射的遥感观测卫星,于莫斯科时间2018年12月27日8时成功入轨,属于KANOPUS-V系列遥感卫星组网卫星,配备高分辨率光学成像设备,主要用于地球资源观测、灾害监测、环境监测,可为农业、水利、应急管理提供精准遥感数据支撑,助力独联体地区对地观测体系建设。

Basic Information
目录编号:
43876
目录名称:
KANOPUS-V 5
国际标识:
2018-111A
轨道中心:
EARTH
卫星名称:
KANOPUS-V 5
卫星全名:
--
卫星状态:
在轨 (已飞行2729 天)
发射日期:
2018-12-27 UTC
国别 :
俄罗斯(独联体) (CIS)
星等 :
--
Orbit Information
数据来源 国际轨道数据 AOE轨道数据
星历时间 2026-06-17T12:38:49+0800
8小时前
查看轨道信息
2026-06-17T02:00:00+0800
18小时前
查看轨道信息
半长轴 6874.99km 6875.002km
偏心率 0.0001617 0.0001581
轨道倾角 97.358° 97.358°
近地点辐角 86.304° 87.368°
升交点赤经 73.704° 73.270°
平近点角 273.838° 2.073°
近地点 495.741km 495.778km
远地点 497.965km 497.952km
周期 94.551分钟 94.552分钟
每日圈数 15.229818 15.229779
Detailed Information
使用方式:
暂无
2D Orbit Map
3D Orbit Map
Orbit Altitude Analysis Chart
Orbit Inclination Analysis Chart
Orbit Comprehensive Analysis Chart
View Comprehensive Chart